USA 134

Last updated on Mon Sep 07 2026 00:02:56 GMT+0000 (Coordinated Universal Time)

1 25019U 97065A 26249.42700071 -.00000075 00000+0 00000+0 0 9999 2 25019 12.8803 21.0950 0002581 269.8559 96.1915 1.00270291 33771
UTC large
Height (km)
Speed (km/s)
/
Latitude / Longitude
Inclination (degrees)
Orbital Period (minutes)
Azimuth
Elevation
Range (km)
Doppler Factor

Next 0 passes for location: London (51.5072 / 0.1276)

No passes found over London.
USA 134